| time (UTC) | temp F | wind direction | speed MPH | gust MPH | rain 1hr in | rain 24hr in | rain mn in | humidity % | barometer mb |
| 20260510194542 | 69 | 0 | 0.0 | 0.0 | 0.00 | 0.00 | 0.00 | 65 | 1010.4 |
| 20260510193039 | 69 | 0 | 0.0 | 0.0 | 0.00 | 0.00 | 0.00 | 62 | 1010.2 |
| 20260510191539 | 70 | 0 | 0.0 | 0.0 | 0.00 | 0.00 | 0.00 | 61 | 1010.2 |
| 20260510190057 | 71 | 0 | 0.0 | 0.0 | 0.00 | 0.00 | 0.00 | 60 | 1010.1 |
| 20260510184545 | 72 | 0 | 0.0 | 3.0 | 0.00 | 0.00 | 0.00 | 57 | 1010.1 |
| 20260510183044 | 72 | 0 | 0.0 | 7.0 | 0.00 | 0.00 | 0.00 | 56 | 1009.8 |
| 20260510181606 | 74 | 0 | 0.0 | 6.0 | 0.00 | 0.00 | 0.00 | 55 | 1009.7 |
| 20260510180052 | 74 | 0 | 0.0 | 11.0 | 0.00 | 0.00 | 0.00 | 54 | 1009.5 |
| 20260510174558 | 75 | 281 | 0.0 | 11.0 | 0.00 | 0.00 | 0.00 | 53 | 1009.7 |
| 20260510173056 | 75 | 259 | 3.0 | 16.0 | 0.00 | 0.00 | 0.00 | 53 | 1009.7 |
| 20260510171558 | 75 | 205 | 5.0 | 17.0 | 0.00 | 0.00 | 0.00 | 53 | 1009.5 |
| 20260510170052 | 76 | 217 | 5.0 | 18.0 | 0.00 | 0.00 | 0.00 | 51 | 1009.3 |
| 20260510164557 | 76 | 212 | 4.0 | 20.0 | 0.00 | 0.00 | 0.00 | 52 | 1009.3 |
| 20260510163048 | 76 | 232 | 8.0 | 18.0 | 0.00 | 0.00 | 0.00 | 51 | 1009.4 |
| 20260510161547 | 77 | 220 | 7.0 | 18.0 | 0.00 | 0.00 | 0.00 | 50 | 1009.5 |
| 20260510160047 | 77 | 217 | 5.0 | 21.0 | 0.00 | 0.00 | 0.00 | 49 | 1009.5 |
| 20260510154543 | 78 | 247 | 9.0 | 25.0 | 0.00 | 0.00 | 0.00 | 48 | 1009.7 |
| 20260510153044 | 78 | 244 | 7.0 | 20.0 | 0.00 | 0.00 | 0.00 | 48 | 1009.7 |
| 20260510151538 | 78 | 249 | 6.0 | 25.0 | 0.00 | 0.00 | 0.00 | 49 | 1009.8 |
| 20260510150051 | 78 | 214 | 9.0 | 23.0 | 0.00 | 0.00 | 0.00 | 49 | 1010.0 |
| 20260510144543 | 78 | 252 | 11.0 | 23.0 | 0.00 | 0.00 | 0.00 | 49 | 1009.9 |
| 20260510143044 | 78 | 210 | 10.0 | 22.0 | 0.00 | 0.00 | 0.00 | 50 | 1010.2 |
| 20260510141543 | 78 | 220 | 6.0 | 19.0 | 0.00 | 0.00 | 0.00 | 51 | 1010.2 |
| 20260510140042 | 79 | 217 | 5.0 | 19.0 | 0.00 | 0.00 | 0.00 | 50 | 1010.4 |
| 20260510134542 | 78 | 158 | 7.0 | 20.0 | 0.00 | 0.00 | 0.00 | 50 | 1010.7 |
| 20260510133039 | 78 | 256 | 4.0 | 21.0 | 0.00 | 0.00 | 0.00 | 50 | 1010.9 |
| 20260510131543 | 78 | 261 | 9.0 | 21.0 | 0.00 | 0.00 | 0.00 | 52 | 1010.8 |
| 20260510130038 | 78 | 233 | 8.0 | 19.0 | 0.00 | 0.00 | 0.00 | 52 | 1010.9 |
| 20260510124542 | 78 | 262 | 7.0 | 20.0 | 0.00 | 0.00 | 0.00 | 53 | 1011.1 |
| 20260510123042 | 78 | 218 | 5.0 | 18.0 | 0.00 | 0.00 | 0.00 | 54 | 1011.3 |
| 20260510121539 | 76 | 202 | 3.0 | 12.0 | 0.00 | 0.00 | 0.00 | 66 | 1011.5 |
| 20260510120038 | 76 | 124 | 1.0 | 11.0 | 0.00 | 0.00 | 0.00 | 65 | 1011.7 |
| 20260510114556 | 76 | 139 | 1.0 | 14.0 | 0.00 | 0.00 | 0.00 | 68 | 1011.9 |
| 20260510113046 | 75 | 199 | 0.0 | 12.0 | 0.00 | 0.00 | 0.00 | 67 | 1012.2 |
| 20260510111543 | 74 | 0 | 0.0 | 12.0 | 0.00 | 0.00 | 0.00 | 68 | 1012.5 |
| 20260510110050 | 76 | 0 | 0.0 | 10.0 | 0.00 | 0.00 | 0.00 | 66 | 1012.6 |
| 20260510104540 | 76 | 0 | 0.0 | 0.0 | 0.00 | 0.04 | 0.00 | 61 | 1012.9 |
| 20260510103043 | 75 | 0 | 0.0 | 1.0 | 0.00 | 0.04 | 0.00 | 63 | 1012.9 |
| 20260510101558 | 74 | 0 | 0.0 | 0.0 | 0.00 | 0.04 | 0.00 | 64 | 1013.0 |
| 20260510100050 | 72 | 0 | 0.0 | 0.0 | 0.00 | 0.04 | 0.00 | 67 | 1013.2 |
| 20260510094549 | 71 | 0 | 0.0 | 0.0 | 0.00 | 0.18 | 0.00 | 67 | 1013.3 |
| 20260510093041 | 70 | 0 | 0.0 | 0.0 | 0.00 | 0.18 | 0.00 | 70 | 1013.4 |
| 20260510091540 | 70 | 0 | 0.0 | 0.0 | 0.00 | 0.18 | 0.00 | 70 | 1013.5 |
| 20260510090039 | 70 | 0 | 0.0 | 0.0 | 0.00 | 0.18 | 0.00 | 72 | 1013.5 |
| 20260510084539 | 69 | 0 | 0.0 | 0.0 | 0.00 | 0.25 | 0.00 | 73 | 1013.6 |
| 20260510083043 | 67 | 0 | 0.0 | 0.0 | 0.00 | 0.25 | 0.00 | 76 | 1013.8 |
| 20260510081544 | 65 | 0 | 0.0 | 0.0 | 0.00 | 0.25 | 0.00 | 81 | 1013.8 |
| 20260510080056 | 63 | 0 | 0.0 | 0.0 | 0.00 | 0.25 | 0.00 | 84 | 1014.0 |
| 20260510074540 | 62 | 0 | 0.0 | 0.0 | 0.00 | 0.33 | 0.00 | 86 | 1014.0 |
| 20260510073047 | 61 | 0 | 0.0 | 0.0 | 0.00 | 0.33 | 0.00 | 88 | 1014.1 |
| 20260510071538 | 60 | 0 | 0.0 | 0.0 | 0.00 | 0.33 | 0.00 | 89 | 1014.0 |
| 20260510070050 | 59 | 0 | 0.0 | 1.0 | 0.00 | 0.33 | 0.00 | 90 | 1013.8 |
| 20260510064547 | 58 | 0 | 0.0 | 0.0 | 0.00 | 0.44 | 0.00 | 92 | 1013.8 |
| 20260510063043 | 57 | 0 | 0.0 | 0.0 | 0.00 | 0.44 | 0.00 | 93 | 1013.7 |
| 20260510061540 | 56 | 0 | 0.0 | 0.0 | 0.00 | 0.44 | 0.00 | 93 | 1013.9 |
| 20260510060044 | 56 | 0 | 0.0 | 0.0 | 0.00 | 0.44 | 0.00 | 93 | 1013.8 |
| 20260510054537 | 56 | 0 | 0.0 | 0.0 | 0.00 | 0.45 | 0.00 | 94 | 1013.7 |
| 20260510053046 | 55 | 0 | 0.0 | 0.0 | 0.00 | 0.45 | 0.00 | 94 | 1013.4 |
| 20260510051546 | 54 | 0 | 0.0 | 0.0 | 0.00 | 0.45 | 0.00 | 94 | 1013.4 |
| 20260510050045 | 54 | 0 | 0.0 | 0.0 | 0.00 | 0.45 | 0.00 | 93 | 1013.4 |
| 20260510044540 | 55 | 0 | 0.0 | 0.0 | 0.00 | 0.45 | 0.00 | 93 | 1013.4 |
| 20260510043039 | 54 | 0 | 0.0 | 0.0 | 0.00 | 0.45 | 0.00 | 94 | 1013.4 |
| 20260510041539 | 54 | 0 | 0.0 | 0.0 | 0.00 | 0.45 | 0.00 | 94 | 1013.2 |
| 20260510040047 | 54 | 0 | 0.0 | 0.0 | 0.00 | 0.45 | 0.00 | 94 | 1013.2 |
| 20260510034544 | 55 | 0 | 0.0 | 0.0 | 0.00 | 0.45 | 0.00 | 94 | 1013.2 |
| 20260510033053 | 54 | 0 | 0.0 | 0.0 | 0.00 | 0.45 | 0.00 | 94 | 1013.2 |
| 20260510031545 | 54 | 0 | 0.0 | 0.0 | 0.00 | 0.45 | 0.00 | 94 | 1013.2 |
| 20260510030041 | 54 | 0 | 0.0 | 0.0 | 0.00 | 0.45 | 0.00 | 94 | 1013.0 |
| 20260510024539 | 54 | 0 | 0.0 | 0.0 | 0.00 | 0.45 | 0.00 | 93 | 1013.0 |
| 20260510023044 | 55 | 0 | 0.0 | 0.0 | 0.00 | 0.45 | 0.00 | 94 | 1012.9 |
| 20260510021635 | 55 | 0 | 0.0 | 0.0 | 0.00 | 0.45 | 0.00 | 93 | 1013.0 |
| 20260510020046 | 56 | 0 | 0.0 | 0.0 | 0.00 | 0.45 | 0.00 | 93 | 1012.9 |
| 20260510014551 | 55 | 0 | 0.0 | 0.0 | 0.00 | 0.45 | 0.00 | 93 | 1012.8 |
| 20260510013041 | 56 | 0 | 0.0 | 0.0 | 0.00 | 0.45 | 0.00 | 92 | 1012.9 |
| 20260510011538 | 56 | 0 | 0.0 | 0.0 | 0.00 | 0.45 | 0.00 | 92 | 1012.8 |
| 20260510010049 | 56 | 0 | 0.0 | 0.0 | 0.00 | 0.45 | 0.00 | 92 | 1013.0 |
| 20260510004544 | 56 | 0 | 0.0 | 0.0 | 0.00 | 0.45 | 0.00 | 92 | 1013.2 |
| 20260510003043 | 57 | 0 | 0.0 | 0.0 | 0.00 | 0.45 | 0.00 | 91 | 1013.4 |
| 20260510001540 | 57 | 0 | 0.0 | 0.0 | 0.00 | 0.45 | 0.00 | 90 | 1013.3 |
| 20260510000041 | 57 | 0 | 0.0 | 0.0 | 0.00 | 0.45 | 0.00 | 89 | 1013.3 |
| 20260509234538 | 58 | 0 | 0.0 | 0.0 | 0.00 | 0.45 | 0.00 | 88 | 1013.3 |
| 20260509233043 | 58 | 0 | 0.0 | 0.0 | 0.00 | 0.45 | 0.00 | 89 | 1013.6 |
| 20260509231547 | 58 | 0 | 0.0 | 0.0 | 0.00 | 0.45 | 0.00 | 89 | 1013.4 |
| 20260509230048 | 58 | 0 | 0.0 | 0.0 | 0.00 | 0.45 | 0.00 | 90 | 1013.6 |
| 20260509224540 | 59 | 0 | 0.0 | 0.0 | 0.00 | 0.45 | 0.00 | 89 | 1013.6 |
| 20260509223048 | 59 | 0 | 0.0 | 0.0 | 0.00 | 0.45 | 0.00 | 88 | 1013.5 |
| 20260509221540 | 59 | 0 | 0.0 | 0.0 | 0.00 | 0.45 | 0.00 | 87 | 1013.6 |
| 20260509220039 | 59 | 0 | 0.0 | 0.0 | 0.00 | 0.45 | 0.00 | 87 | 1013.5 |
| 20260509214539 | 60 | 0 | 0.0 | 0.0 | 0.00 | 0.45 | 0.45 | 86 | 1013.4 |
| 20260509213105 | 60 | 0 | 0.0 | 0.0 | 0.00 | 0.45 | 0.45 | 85 | 1013.3 |
| 20260509211549 | 61 | 0 | 0.0 | 0.0 | 0.00 | 0.45 | 0.45 | 83 | 1013.3 |
| 20260509210045 | 62 | 0 | 0.0 | 0.0 | 0.00 | 0.45 | 0.45 | 81 | 1013.3 |
| 20260509204539 | 63 | 0 | 0.0 | 0.0 | 0.00 | 0.45 | 0.45 | 80 | 1013.0 |
| 20260509203042 | 63 | 0 | 0.0 | 0.0 | 0.00 | 0.45 | 0.45 | 79 | 1012.9 |
| 20260509201542 | 63 | 0 | 0.0 | 0.0 | 0.00 | 0.45 | 0.45 | 79 | 1012.8 |
| 20260509200045 | 63 | 0 | 0.0 | 2.0 | 0.00 | 0.45 | 0.45 | 78 | 1012.5 |